Location: ??
(35.5653°N, 139.6194°E)
Time: 00:11:42
(UTC+00:00)

COSMO-SKYMED 1 - Pass Details

Date: 20 November 2019
Orbit: 621 x 623 km, 97.9° (Epoch: 14 December)

Event Time Altitude Azimuth Distance (km) Brightness Sun altitude
Rises 20:37:56 0° 190° (S) 2,888 6.1 -9.3°
Reaches altitude 10° 20:40:19 10° 201° (SSW) 1,986 5.1 -8.8°
Maximum altitude 20:44:08 30° 263° (W) 1,118 3.4 -8.1°
Drops below altitude 10° 20:47:58 10° 325° (NW) 1,998 4.7 -7.3°
Sets 20:50:23 0° 336° (NNW) 2,908 5.6 -6.9°
